| time (UTC) | temp C | wind direction | speed KPH | gust KPH | rain 1hr cm | rain 24hr cm | rain mn cm | humidity % | barometer mb |
| 20260906215059 | 21 | 2 | 4.8 | 14.5 | 0.00 | 0.00 | 0.00 | 62 | 1017.5 |
| 20260906214820 | 20 | 52 | 6.4 | 14.5 | 0.00 | 0.00 | 0.00 | 64 | 1017.6 |
| 20260906214058 | 20 | 118 | 4.8 | 14.5 | 0.00 | 0.00 | 0.00 | 63 | 1017.6 |
| 20260906213818 | 20 | 44 | 4.8 | 16.1 | 0.00 | 0.00 | 0.00 | 65 | 1017.7 |
| 20260906213059 | 20 | 351 | 8.0 | 17.7 | 0.00 | 0.00 | 0.00 | 66 | 1017.7 |
| 20260906212558 | 20 | 11 | 8.0 | 17.7 | 0.00 | 0.00 | 0.00 | 66 | 1017.7 |
| 20260906212059 | 20 | 355 | 6.4 | 19.3 | 0.00 | 0.00 | 0.00 | 64 | 1017.7 |
| 20260906211829 | 20 | 139 | 6.4 | 19.3 | 0.00 | 0.00 | 0.00 | 65 | 1017.6 |
| 20260906211059 | 20 | 48 | 8.0 | 16.1 | 0.00 | 0.00 | 0.00 | 65 | 1017.7 |
| 20260906210600 | 20 | 322 | 8.0 | 16.1 | 0.00 | 0.00 | 0.00 | 66 | 1017.7 |
| 20260906210059 | 20 | 40 | 9.7 | 19.3 | 0.00 | 0.00 | 0.00 | 67 | 1017.6 |
| 20260906205600 | 20 | 9 | 11.3 | 19.3 | 0.00 | 0.00 | 0.00 | 66 | 1017.6 |
| 20260906205059 | 20 | 4 | 11.3 | 19.3 | 0.00 | 0.00 | 0.00 | 67 | 1017.6 |
| 20260906204556 | 20 | 358 | 9.7 | 19.3 | 0.00 | 0.00 | 0.00 | 66 | 1017.5 |
| 20260906204056 | 20 | 32 | 8.0 | 16.1 | 0.00 | 0.00 | 0.00 | 66 | 1017.5 |
| 20260906203556 | 20 | 341 | 8.0 | 17.7 | 0.00 | 0.00 | 0.00 | 67 | 1017.5 |
| 20260906203056 | 20 | 143 | 8.0 | 17.7 | 0.00 | 0.00 | 0.00 | 66 | 1017.5 |
| 20260906202812 | 20 | 28 | 8.0 | 20.9 | 0.00 | 0.00 | 0.00 | 66 | 1017.3 |
| 20260906202056 | 20 | 17 | 8.0 | 20.9 | 0.00 | 0.00 | 0.00 | 66 | 1017.4 |
| 20260906201556 | 20 | 24 | 8.0 | 16.1 | 0.00 | 0.00 | 0.00 | 65 | 1017.4 |
| 20260906201056 | 20 | 37 | 8.0 | 16.1 | 0.00 | 0.00 | 0.00 | 65 | 1017.4 |
| 20260906200819 | 20 | 62 | 6.4 | 16.1 | 0.00 | 0.00 | 0.00 | 65 | 1017.4 |
| 20260906200057 | 20 | 1 | 6.4 | 17.7 | 0.00 | 0.00 | 0.00 | 65 | 1017.4 |
| 20260906195556 | 20 | 54 | 9.7 | 17.7 | 0.00 | 0.00 | 0.00 | 65 | 1017.4 |
| 20260906195055 | 20 | 118 | 9.7 | 20.9 | 0.00 | 0.00 | 0.00 | 65 | 1017.5 |
| 20260906195042 | 20 | 8 | 8.0 | 20.9 | 0.00 | 0.00 | 0.00 | 65 | 1017.5 |
| 20260906194055 | 20 | 11 | 8.0 | 19.3 | 0.00 | 0.00 | 0.00 | 65 | 1017.4 |
| 20260906193554 | 20 | 344 | 9.7 | 19.3 | 0.00 | 0.00 | 0.00 | 67 | 1017.4 |
| 20260906193054 | 20 | 15 | 9.7 | 17.7 | 0.00 | 0.00 | 0.00 | 66 | 1017.4 |
| 20260906192813 | 20 | 19 | 11.3 | 20.9 | 0.00 | 0.00 | 0.00 | 65 | 1017.4 |
| 20260906192055 | 20 | 328 | 9.7 | 20.9 | 0.00 | 0.00 | 0.00 | 65 | 1017.4 |
| 20260906191555 | 20 | 335 | 9.7 | 22.5 | 0.00 | 0.00 | 0.00 | 65 | 1017.4 |
| 20260906191055 | 20 | 23 | 9.7 | 22.5 | 0.00 | 0.00 | 0.00 | 66 | 1017.3 |
| 20260906190555 | 20 | 7 | 6.4 | 17.7 | 0.00 | 0.00 | 0.00 | 66 | 1017.4 |
| 20260906190056 | 20 | 23 | 8.0 | 17.7 | 0.00 | 0.00 | 0.00 | 66 | 1017.4 |
| 20260906185823 | 20 | 30 | 9.7 | 17.7 | 0.00 | 0.00 | 0.00 | 66 | 1017.4 |
| 20260906185055 | 20 | 7 | 8.0 | 17.7 | 0.00 | 0.00 | 0.00 | 66 | 1017.4 |
| 20260906184552 | 20 | 315 | 8.0 | 19.3 | 0.00 | 0.00 | 0.00 | 65 | 1017.4 |
| 20260906184052 | 20 | 29 | 6.4 | 19.3 | 0.00 | 0.00 | 0.00 | 65 | 1017.3 |
| 20260906183552 | 20 | 15 | 8.0 | 19.3 | 0.00 | 0.00 | 0.00 | 63 | 1017.4 |
| 20260906183052 | 20 | 341 | 6.4 | 19.3 | 0.00 | 0.00 | 0.00 | 62 | 1017.5 |
| 20260906182816 | 20 | 311 | 8.0 | 16.1 | 0.00 | 0.00 | 0.00 | 61 | 1017.5 |
| 20260906182318 | 20 | 76 | 11.3 | 20.9 | 0.00 | 0.00 | 0.00 | 63 | 1017.5 |
| 20260906181552 | 20 | 14 | 9.7 | 20.9 | 0.00 | 0.00 | 0.00 | 63 | 1017.4 |
| 20260906181052 | 20 | 9 | 8.0 | 16.1 | 0.00 | 0.00 | 0.00 | 62 | 1017.5 |
| 20260906180817 | 20 | 15 | 6.4 | 17.7 | 0.00 | 0.00 | 0.00 | 62 | 1017.4 |
| 20260906180050 | 20 | 133 | 8.0 | 17.7 | 0.00 | 0.00 | 0.00 | 63 | 1017.4 |
| 20260906175815 | 20 | 40 | 9.7 | 22.5 | 0.00 | 0.00 | 0.00 | 61 | 1017.5 |
| 20260906175047 | 20 | 0 | 9.7 | 22.5 | 0.00 | 0.00 | 0.00 | 63 | 1017.4 |
| 20260906174546 | 20 | 19 | 8.0 | 19.3 | 0.00 | 0.00 | 0.00 | 64 | 1017.5 |
| 20260906174046 | 20 | 109 | 6.4 | 19.3 | 0.00 | 0.00 | 0.00 | 64 | 1017.6 |
| 20260906173546 | 20 | 52 | 8.0 | 17.7 | 0.00 | 0.00 | 0.00 | 61 | 1017.5 |
| 20260906173047 | 20 | 56 | 9.7 | 17.7 | 0.00 | 0.00 | 0.00 | 63 | 1017.6 |
| 20260906172547 | 20 | 82 | 9.7 | 17.7 | 0.00 | 0.00 | 0.00 | 64 | 1017.6 |
| 20260906172047 | 20 | 18 | 8.0 | 20.9 | 0.00 | 0.00 | 0.00 | 64 | 1017.6 |
| 20260906171547 | 20 | 67 | 8.0 | 20.9 | 0.00 | 0.00 | 0.00 | 63 | 1017.6 |
| 20260906171047 | 20 | 55 | 9.7 | 22.5 | 0.00 | 0.00 | 0.00 | 63 | 1017.5 |
| 20260906170547 | 20 | 140 | 8.0 | 22.5 | 0.00 | 0.00 | 0.00 | 62 | 1017.5 |
| 20260906170047 | 21 | 3 | 6.4 | 20.9 | 0.00 | 0.00 | 0.00 | 64 | 1017.5 |
| 20260906165546 | 21 | 79 | 6.4 | 16.1 | 0.00 | 0.00 | 0.00 | 61 | 1017.4 |
| 20260906165309 | 21 | 35 | 6.4 | 16.1 | 0.00 | 0.00 | 0.00 | 60 | 1017.4 |
| 20260906164546 | 21 | 44 | 4.8 | 16.1 | 0.00 | 0.00 | 0.00 | 57 | 1017.4 |
| 20260906164307 | 21 | 41 | 6.4 | 19.3 | 0.00 | 0.00 | 0.00 | 58 | 1017.4 |
| 20260906164030 | 20 | 79 | 8.0 | 19.3 | 0.00 | 0.00 | 0.00 | 59 | 1017.4 |
| 20260906163046 | 20 | 35 | 8.0 | 19.3 | 0.00 | 0.00 | 0.00 | 59 | 1017.5 |
| 20260906162546 | 20 | 66 | 6.4 | 17.7 | 0.00 | 0.00 | 0.00 | 59 | 1017.5 |
| 20260906162046 | 20 | 36 | 6.4 | 19.3 | 0.00 | 0.00 | 0.00 | 60 | 1017.5 |
| 20260906161547 | 20 | 43 | 9.7 | 19.3 | 0.00 | 0.00 | 0.00 | 59 | 1017.5 |
| 20260906161047 | 20 | 12 | 9.7 | 19.3 | 0.00 | 0.00 | 0.00 | 59 | 1017.5 |
| 20260906160546 | 20 | 91 | 8.0 | 17.7 | 0.00 | 0.00 | 0.00 | 62 | 1017.5 |
| 20260906160047 | 20 | 93 | 8.0 | 17.7 | 0.00 | 0.00 | 0.00 | 62 | 1017.5 |
| 20260906160029 | 20 | 41 | 6.4 | 16.1 | 0.00 | 0.00 | 0.00 | 60 | 1017.5 |
| 20260906155043 | 20 | 320 | 6.4 | 16.1 | 0.00 | 0.00 | 0.00 | 61 | 1017.6 |
| 20260906154542 | 20 | 157 | 6.4 | 20.9 | 0.00 | 0.00 | 0.00 | 64 | 1017.6 |
| 20260906154043 | 20 | 213 | 8.0 | 20.9 | 0.00 | 0.00 | 0.00 | 66 | 1017.5 |
| 20260906153542 | 20 | 107 | 8.0 | 20.9 | 0.00 | 0.00 | 0.00 | 63 | 1017.5 |
| 20260906153043 | 20 | 113 | 8.0 | 16.1 | 0.00 | 0.00 | 0.00 | 63 | 1017.4 |
| 20260906152543 | 20 | 50 | 6.4 | 16.1 | 0.00 | 0.00 | 0.00 | 63 | 1017.5 |
| 20260906152043 | 20 | 89 | 6.4 | 16.1 | 0.00 | 0.00 | 0.00 | 66 | 1017.4 |
| 20260906151543 | 20 | 160 | 9.7 | 19.3 | 0.00 | 0.00 | 0.00 | 68 | 1017.5 |
| 20260906151041 | 20 | 112 | 9.7 | 20.9 | 0.00 | 0.00 | 0.00 | 69 | 1017.4 |
| 20260906150542 | 20 | 22 | 6.4 | 20.9 | 0.00 | 0.00 | 0.00 | 66 | 1017.4 |
| 20260906150038 | 20 | 215 | 6.4 | 16.1 | 0.00 | 0.00 | 0.00 | 65 | 1017.4 |
| 20260906145539 | 20 | 83 | 6.4 | 16.1 | 0.00 | 0.00 | 0.00 | 69 | 1017.3 |
| 20260906145038 | 20 | 51 | 6.4 | 14.5 | 0.00 | 0.00 | 0.00 | 71 | 1017.4 |
| 20260906144803 | 19 | 16 | 4.8 | 14.5 | 0.00 | 0.00 | 0.00 | 74 | 1017.5 |
| 20260906144300 | 20 | 93 | 4.8 | 14.5 | 0.00 | 0.00 | 0.00 | 71 | 1017.5 |
| 20260906143538 | 20 | 115 | 4.8 | 14.5 | 0.00 | 0.00 | 0.00 | 69 | 1017.4 |
| 20260906143038 | 20 | 143 | 4.8 | 12.9 | 0.00 | 0.00 | 0.00 | 70 | 1017.3 |
| 20260906142538 | 20 | 85 | 4.8 | 12.9 | 0.00 | 0.00 | 0.00 | 69 | 1017.3 |
| 20260906142039 | 19 | 26 | 4.8 | 12.9 | 0.00 | 0.00 | 0.00 | 70 | 1017.2 |
| 20260906141538 | 19 | 18 | 3.2 | 12.9 | 0.00 | 0.00 | 0.00 | 71 | 1017.2 |
| 20260906141038 | 19 | 175 | 4.8 | 12.9 | 0.00 | 0.00 | 0.00 | 72 | 1017.2 |
| 20260906140538 | 19 | 85 | 6.4 | 14.5 | 0.00 | 0.00 | 0.00 | 72 | 1017.1 |
| 20260906140032 | 19 | 75 | 8.0 | 16.1 | 0.00 | 0.00 | 0.00 | 72 | 1017.0 |
| 20260906135534 | 20 | 17 | 8.0 | 16.1 | 0.00 | 0.00 | 0.00 | 72 | 1017.0 |
| 20260906135032 | 20 | 119 | 6.4 | 17.7 | 0.00 | 0.00 | 0.00 | 71 | 1017.0 |
| 20260906134535 | 19 | 105 | 6.4 | 17.7 | 0.00 | 0.00 | 0.00 | 72 | 1016.9 |
| 20260906134033 | 18 | 321 | 6.4 | 12.9 | 0.00 | 0.00 | 0.00 | 77 | 1017.0 |
| 20260906133535 | 18 | 68 | 6.4 | 12.9 | 0.00 | 0.00 | 0.00 | 78 | 1016.9 |
| 20260906133033 | 18 | 104 | 4.8 | 11.3 | 0.00 | 0.00 | 0.00 | 81 | 1017.0 |
| 20260906132535 | 18 | 96 | 4.8 | 9.7 | 0.00 | 0.00 | 0.00 | 81 | 1017.0 |
| 20260906132033 | 18 | 36 | 4.8 | 9.7 | 0.00 | 0.00 | 0.00 | 82 | 1017.0 |
| 20260906131535 | 18 | 104 | 3.2 | 9.7 | 0.00 | 0.00 | 0.00 | 83 | 1016.9 |
| 20260906131033 | 18 | 99 | 3.2 | 8.0 | 0.00 | 0.00 | 0.00 | 85 | 1017.0 |
| 20260906130534 | 17 | 77 | 3.2 | 9.7 | 0.00 | 0.00 | 0.00 | 86 | 1017.1 |
| 20260906130032 | 17 | 123 | 3.2 | 12.9 | 0.00 | 0.00 | 0.00 | 86 | 1017.0 |
| 20260906125803 | 17 | 33 | 3.2 | 12.9 | 0.00 | 0.00 | 0.00 | 86 | 1017.0 |
| 20260906125031 | 17 | 82 | 3.2 | 12.9 | 0.00 | 0.00 | 0.00 | 86 | 1017.0 |
| 20260906124533 | 17 | 143 | 3.2 | 12.9 | 0.00 | 0.00 | 0.00 | 87 | 1017.0 |
| 20260906124031 | 17 | 137 | 3.2 | 12.9 | 0.00 | 0.00 | 0.00 | 88 | 1016.9 |
| 20260906123533 | 17 | 45 | 3.2 | 9.7 | 0.00 | 0.00 | 0.00 | 89 | 1016.9 |
| 20260906123030 | 17 | 124 | 3.2 | 9.7 | 0.00 | 0.00 | 0.00 | 89 | 1016.9 |
| 20260906122533 | 17 | 66 | 3.2 | 8.0 | 0.00 | 0.00 | 0.00 | 90 | 1016.8 |
| 20260906122032 | 17 | 102 | 3.2 | 8.0 | 0.00 | 0.00 | 0.00 | 91 | 1016.8 |
| 20260906121532 | 17 | 138 | 3.2 | 6.4 | 0.00 | 0.00 | 0.00 | 91 | 1016.8 |
| 20260906121031 | 17 | 100 | 1.6 | 6.4 | 0.00 | 0.00 | 0.00 | 92 | 1016.8 |
| 20260906121010 | 17 | 110 | 1.6 | 4.8 | 0.00 | 0.00 | 0.00 | 93 | 1016.7 |
| 20260906120032 | 17 | 148 | 1.6 | 6.4 | 0.00 | 0.00 | 0.00 | 93 | 1016.6 |
| 20260906115528 | 16 | 86 | 1.6 | 6.4 | 0.00 | 0.00 | 0.00 | 94 | 1016.6 |
| 20260906115249 | 16 | 358 | 1.6 | 6.4 | 0.00 | 0.00 | 0.00 | 94 | 1016.5 |
| 20260906114527 | 16 | 42 | 1.6 | 6.4 | 0.00 | 0.00 | 0.00 | 94 | 1016.5 |
| 20260906114025 | 16 | 39 | 1.6 | 4.8 | 0.00 | 0.00 | 0.00 | 94 | 1016.4 |
| 20260906113524 | 16 | 221 | 0.0 | 3.2 | 0.00 | 0.00 | 0.00 | 94 | 1016.4 |
| 20260906113021 | 16 | 59 | 0.0 | 3.2 | 0.00 | 0.00 | 0.00 | 94 | 1016.3 |
| 20260906112521 | 16 | 87 | 1.6 | 3.2 | 0.00 | 0.00 | 0.00 | 94 | 1016.3 |
| 20260906112021 | 15 | 0 | 0.0 | 3.2 | 0.00 | 0.00 | 0.00 | 94 | 1016.1 |
| 20260906111747 | 15 | 210 | 0.0 | 1.6 | 0.00 | 0.00 | 0.00 | 94 | 1016.1 |
| 20260906111021 | 15 | 0 | 0.0 | 3.2 | 0.00 | 0.00 | 0.00 | 94 | 1016.0 |
| 20260906110744 | 15 | 86 | 0.0 | 3.2 | 0.00 | 0.00 | 0.00 | 94 | 1016.0 |
| 20260906110245 | 15 | 271 | 0.0 | 1.6 | 0.00 | 0.00 | 0.00 | 94 | 1015.9 |
| 20260906105520 | 15 | 98 | 0.0 | 1.6 | 0.00 | 0.00 | 0.00 | 94 | 1015.9 |
| 20260906105020 | 15 | 308 | 0.0 | 1.6 | 0.00 | 0.00 | 0.00 | 93 | 1015.9 |
| 20260906104519 | 16 | 90 | 0.0 | 1.6 | 0.00 | 0.00 | 0.00 | 94 | 1015.8 |
| 20260906104019 | 16 | 267 | 1.6 | 3.2 | 0.00 | 0.00 | 0.00 | 94 | 1015.7 |
| 20260906103519 | 16 | 283 | 1.6 | 3.2 | 0.00 | 0.00 | 0.00 | 94 | 1015.7 |
| 20260906103019 | 15 | 302 | 1.6 | 3.2 | 0.00 | 0.00 | 0.00 | 94 | 1015.6 |
| 20260906102520 | 15 | 272 | 1.6 | 1.6 | 0.00 | 0.00 | 0.00 | 94 | 1015.6 |
| 20260906102020 | 15 | 329 | 0.0 | 1.6 | 0.00 | 0.00 | 0.00 | 94 | 1015.5 |
| 20260906101520 | 15 | 0 | 0.0 | 1.6 | 0.00 | 0.00 | 0.00 | 94 | 1015.5 |
| 20260906101020 | 15 | 0 | 0.0 | 1.6 | 0.00 | 0.00 | 0.00 | 94 | 1015.4 |
| 20260906100520 | 15 | 0 | 0.0 | 1.6 | 0.00 | 0.00 | 0.00 | 94 | 1015.4 |
| 20260906100239 | 15 | 0 | 0.0 | 1.6 | 0.00 | 0.00 | 0.00 | 93 | 1015.3 |
| 20260906095520 | 15 | 0 | 0.0 | 1.6 | 0.00 | 0.00 | 0.00 | 93 | 1015.3 |
| 20260906095020 | 15 | 0 | 0.0 | 1.6 | 0.00 | 0.00 | 0.00 | 93 | 1015.2 |
| 20260906094520 | 15 | 195 | 0.0 | 1.6 | 0.00 | 0.00 | 0.00 | 93 | 1015.2 |
| 20260906094020 | 15 | 89 | 0.0 | 3.2 | 0.00 | 0.00 | 0.00 | 93 | 1015.2 |
| 20260906093520 | 15 | 258 | 1.6 | 3.2 | 0.00 | 0.00 | 0.00 | 94 | 1015.1 |
| 20260906093017 | 15 | 353 | 1.6 | 3.2 | 0.00 | 0.00 | 0.00 | 93 | 1015.1 |
| 20260906092517 | 15 | 7 | 1.6 | 4.8 | 0.00 | 0.00 | 0.00 | 94 | 1015.0 |
| 20260906092017 | 15 | 326 | 1.6 | 4.8 | 0.00 | 0.00 | 0.00 | 94 | 1014.9 |
| 20260906091517 | 15 | 319 | 0.0 | 1.6 | 0.00 | 0.00 | 0.00 | 93 | 1014.8 |
| 20260906091506 | 15 | 0 | 0.0 | 1.6 | 0.00 | 0.00 | 0.00 | 93 | 1014.7 |
| 20260906090517 | 15 | 0 | 1.6 | 3.2 | 0.00 | 0.00 | 0.00 | 93 | 1014.6 |
| 20260906090017 | 15 | 0 | 1.6 | 3.2 | 0.00 | 0.00 | 0.00 | 93 | 1014.5 |
| 20260906085517 | 15 | 252 | 0.0 | 3.2 | 0.00 | 0.00 | 0.00 | 93 | 1014.4 |
| 20260906085239 | 15 | 58 | 0.0 | 1.6 | 0.00 | 0.00 | 0.00 | 93 | 1014.4 |
| 20260906084737 | 15 | 0 | 0.0 | 1.6 | 0.00 | 0.00 | 0.00 | 93 | 1014.4 |
| 20260906084017 | 15 | 0 | 0.0 | 1.6 | 0.00 | 0.00 | 0.00 | 93 | 1014.4 |
| 20260906083743 | 15 | 0 | 0.0 | 1.6 | 0.00 | 0.00 | 0.00 | 93 | 1014.4 |
| 20260906083018 | 15 | 209 | 0.0 | 1.6 | 0.00 | 0.00 | 0.00 | 93 | 1014.4 |
| 20260906082518 | 15 | 245 | 1.6 | 1.6 | 0.00 | 0.00 | 0.00 | 93 | 1014.3 |
| 20260906082019 | 15 | 0 | 0.0 | 1.6 | 0.00 | 0.00 | 0.00 | 93 | 1014.4 |
| 20260906081955 | 15 | 0 | 0.0 | 1.6 | 0.00 | 0.00 | 0.00 | 93 | 1014.4 |
| 20260906081015 | 15 | 280 | 0.0 | 1.6 | 0.00 | 0.00 | 0.00 | 93 | 1014.3 |
| 20260906080515 | 15 | 0 | 0.0 | 1.6 | 0.00 | 0.00 | 0.00 | 93 | 1014.3 |
| 20260906080015 | 15 | 331 | 0.0 | 1.6 | 0.00 | 0.00 | 0.00 | 93 | 1014.2 |
| 20260906075514 | 15 | 268 | 0.0 | 1.6 | 0.00 | 0.00 | 0.00 | 92 | 1014.2 |
| 20260906075232 | 15 | 267 | 0.0 | 1.6 | 0.00 | 0.00 | 0.00 | 93 | 1014.2 |
| 20260906074512 | 15 | 176 | 0.0 | 1.6 | 0.00 | 0.00 | 0.00 | 92 | 1014.2 |
| 20260906074013 | 15 | 270 | 0.0 | 1.6 | 0.00 | 0.00 | 0.00 | 92 | 1014.2 |
| 20260906073512 | 15 | 0 | 0.0 | 1.6 | 0.00 | 0.00 | 0.00 | 92 | 1014.1 |
| 20260906073011 | 16 | 283 | 0.0 | 1.6 | 0.00 | 0.00 | 0.00 | 92 | 1014.1 |
| 20260906072510 | 16 | 336 | 0.0 | 1.6 | 0.00 | 0.00 | 0.00 | 92 | 1014.1 |
| 20260906071736 | 16 | 231 | 0.0 | 3.2 | 0.00 | 0.00 | 0.00 | 92 | 1014.2 |
| 20260906071011 | 16 | 268 | 1.6 | 3.2 | 0.00 | 0.00 | 0.00 | 92 | 1014.1 |
| 20260906070512 | 16 | 358 | 1.6 | 3.2 | 0.00 | 0.00 | 0.00 | 92 | 1014.2 |
| 20260906070012 | 16 | 221 | 0.0 | 3.2 | 0.00 | 0.00 | 0.00 | 92 | 1014.2 |
| 20260906065511 | 16 | 18 | 0.0 | 3.2 | 0.00 | 0.00 | 0.00 | 92 | 1014.3 |
| 20260906065012 | 16 | 0 | 0.0 | 3.2 | 0.00 | 0.00 | 0.00 | 92 | 1014.3 |
| 20260906064508 | 16 | 23 | 0.0 | 3.2 | 0.00 | 0.00 | 0.00 | 92 | 1014.3 |
| 20260906064007 | 16 | 284 | 0.0 | 1.6 | 0.00 | 0.00 | 0.00 | 92 | 1014.3 |
| 20260906063508 | 16 | 0 | 0.0 | 1.6 | 0.00 | 0.00 | 0.00 | 92 | 1014.3 |
| 20260906063007 | 16 | 225 | 0.0 | 3.2 | 0.00 | 0.00 | 0.00 | 92 | 1014.2 |
| 20260906062505 | 16 | 230 | 0.0 | 3.2 | 0.00 | 0.00 | 0.00 | 92 | 1014.3 |
| 20260906062006 | 16 | 323 | 0.0 | 3.2 | 0.00 | 0.00 | 0.00 | 92 | 1014.3 |
| 20260906061507 | 16 | 272 | 0.0 | 1.6 | 0.00 | 0.00 | 0.00 | 92 | 1014.3 |
| 20260906061502 | 16 | 344 | 0.0 | 3.2 | 0.00 | 0.00 | 0.00 | 92 | 1014.3 |
| 20260906060507 | 16 | 326 | 0.0 | 3.2 | 0.00 | 0.00 | 0.00 | 91 | 1014.3 |
| 20260906060225 | 16 | 0 | 0.0 | 1.6 | 0.00 | 0.00 | 0.00 | 91 | 1014.3 |
| 20260906055506 | 16 | 0 | 0.0 | 1.6 | 0.00 | 0.00 | 0.00 | 91 | 1014.3 |
| 20260906055006 | 16 | 0 | 0.0 | 3.2 | 0.00 | 0.00 | 0.00 | 91 | 1014.3 |
| 20260906054726 | 16 | 218 | 0.0 | 3.2 | 0.00 | 0.00 | 0.00 | 91 | 1014.4 |
| 20260906054226 | 16 | 0 | 0.0 | 3.2 | 0.00 | 0.00 | 0.00 | 91 | 1014.4 |
| 20260906053502 | 16 | 0 | 0.0 | 3.2 | 0.00 | 0.00 | 0.00 | 91 | 1014.3 |
| 20260906053222 | 16 | 103 | 1.6 | 3.2 | 0.00 | 0.00 | 0.00 | 91 | 1014.5 |
| 20260906052501 | 16 | 230 | 1.6 | 3.2 | 0.00 | 0.00 | 0.00 | 91 | 1014.5 |
| 20260906052001 | 16 | 321 | 0.0 | 3.2 | 0.00 | 0.00 | 0.00 | 91 | 1014.5 |
| 20260906051500 | 16 | 241 | 0.0 | 3.2 | 0.00 | 0.00 | 0.00 | 91 | 1014.5 |
| 20260906051001 | 16 | 269 | 0.0 | 3.2 | 0.00 | 0.00 | 0.00 | 91 | 1014.4 |
| 20260906050502 | 16 | 0 | 0.0 | 3.2 | 0.00 | 0.00 | 0.00 | 91 | 1014.4 |
| 20260906050002 | 16 | 234 | 0.0 | 3.2 | 0.00 | 0.00 | 0.00 | 91 | 1014.4 |
| 20260906045458 | 16 | 326 | 0.0 | 3.2 | 0.00 | 0.00 | 0.00 | 90 | 1014.3 |
| 20260906045223 | 16 | 290 | 1.6 | 3.2 | 0.00 | 0.00 | 0.00 | 90 | 1014.2 |
| 20260906044458 | 16 | 224 | 0.0 | 3.2 | 0.00 | 0.00 | 0.00 | 90 | 1014.2 |
| 20260906044217 | 16 | 0 | 0.0 | 1.6 | 0.00 | 0.00 | 0.00 | 90 | 1014.2 |
| 20260906043716 | 17 | 0 | 0.0 | 1.6 | 0.00 | 0.00 | 0.00 | 89 | 1014.1 |
| 20260906042957 | 17 | 301 | 0.0 | 1.6 | 0.00 | 0.00 | 0.00 | 89 | 1014.1 |
| 20260906042458 | 17 | 0 | 0.0 | 3.2 | 0.00 | 0.00 | 0.00 | 89 | 1014.2 |
| 20260906041957 | 17 | 274 | 0.0 | 3.2 | 0.00 | 0.00 | 0.00 | 88 | 1014.1 |
| 20260906041457 | 17 | 242 | 0.0 | 3.2 | 0.00 | 0.00 | 0.00 | 88 | 1014.1 |
| 20260906040958 | 17 | 0 | 1.6 | 3.2 | 0.00 | 0.00 | 0.00 | 88 | 1014.2 |
| 20260906040723 | 17 | 261 | 1.6 | 3.2 | 0.00 | 0.00 | 0.00 | 87 | 1014.2 |
| 20260906035949 | 17 | 284 | 0.0 | 3.2 | 0.00 | 0.00 | 0.00 | 87 | 1014.1 |
| 20260906035448 | 17 | 303 | 0.0 | 1.6 | 0.00 | 0.00 | 0.00 | 86 | 1014.1 |
| 20260906034947 | 18 | 278 | 0.0 | 1.6 | 0.00 | 0.00 | 0.00 | 86 | 1014.2 |
| 20260906034448 | 18 | 0 | 0.0 | 1.6 | 0.00 | 0.00 | 0.00 | 85 | 1014.1 |
| 20260906033943 | 18 | 280 | 0.0 | 1.6 | 0.00 | 0.00 | 0.00 | 85 | 1014.1 |
| 20260906033706 | 18 | 0 | 1.6 | 4.8 | 0.00 | 0.00 | 0.00 | 84 | 1014.1 |
| 20260906032942 | 18 | 333 | 1.6 | 4.8 | 0.00 | 0.00 | 0.00 | 84 | 1014.0 |
| 20260906032442 | 18 | 333 | 3.2 | 4.8 | 0.00 | 0.00 | 0.00 | 84 | 1014.1 |
| 20260906031942 | 18 | 329 | 3.2 | 4.8 | 0.00 | 0.00 | 0.00 | 83 | 1014.1 |
| 20260906031442 | 18 | 323 | 1.6 | 4.8 | 0.00 | 0.00 | 0.00 | 83 | 1014.1 |
| 20260906030943 | 18 | 338 | 1.6 | 4.8 | 0.00 | 0.00 | 0.00 | 83 | 1014.0 |
| 20260906030438 | 18 | 331 | 1.6 | 3.2 | 0.00 | 0.00 | 0.00 | 83 | 1014.0 |
| 20260906025938 | 18 | 234 | 1.6 | 4.8 | 0.00 | 0.00 | 0.00 | 83 | 1014.0 |
| 20260906025438 | 18 | 321 | 3.2 | 4.8 | 0.00 | 0.00 | 0.00 | 83 | 1013.9 |
| 20260906024937 | 18 | 334 | 1.6 | 4.8 | 0.00 | 0.00 | 0.00 | 83 | 1013.7 |
| 20260906024437 | 18 | 303 | 1.6 | 4.8 | 0.00 | 0.00 | 0.00 | 83 | 1013.7 |
| 20260906023937 | 18 | 264 | 3.2 | 6.4 | 0.00 | 0.00 | 0.00 | 83 | 1013.7 |
| 20260906023437 | 18 | 313 | 3.2 | 6.4 | 0.00 | 0.00 | 0.00 | 83 | 1013.7 |
| 20260906023425 | 18 | 320 | 1.6 | 3.2 | 0.00 | 0.00 | 0.00 | 82 | 1013.7 |
| 20260906022924 | 18 | 266 | 3.2 | 4.8 | 0.00 | 0.00 | 0.00 | 82 | 1013.7 |
| 20260906021937 | 18 | 303 | 3.2 | 4.8 | 0.00 | 0.00 | 0.00 | 82 | 1013.7 |
| 20260906021437 | 18 | 347 | 3.2 | 6.4 | 0.00 | 0.00 | 0.00 | 82 | 1013.6 |
| 20260906020937 | 19 | 351 | 3.2 | 6.4 | 0.00 | 0.00 | 0.00 | 82 | 1013.6 |
| 20260906020651 | 19 | 288 | 3.2 | 6.4 | 0.00 | 0.00 | 0.00 | 81 | 1013.7 |
| 20260906020157 | 19 | 290 | 3.2 | 8.0 | 0.00 | 0.00 | 0.00 | 81 | 1013.7 |
| 20260906015433 | 19 | 341 | 3.2 | 8.0 | 0.00 | 0.00 | 0.00 | 81 | 1013.7 |
| 20260906015156 | 19 | 245 | 3.2 | 8.0 | 0.00 | 0.00 | 0.00 | 81 | 1013.7 |
| 20260906014432 | 19 | 338 | 3.2 | 8.0 | 0.00 | 0.00 | 0.00 | 81 | 1013.6 |
| 20260906013932 | 19 | 309 | 3.2 | 6.4 | 0.00 | 0.00 | 0.00 | 81 | 1013.5 |
| 20260906013431 | 19 | 262 | 1.6 | 6.4 | 0.00 | 0.00 | 0.00 | 80 | 1013.4 |
| 20260906012933 | 19 | 2 | 3.2 | 6.4 | 0.00 | 0.00 | 0.00 | 80 | 1013.4 |
| 20260906012432 | 19 | 350 | 3.2 | 6.4 | 0.00 | 0.00 | 0.00 | 80 | 1013.5 |
| 20260906011931 | 19 | 343 | 3.2 | 6.4 | 0.00 | 0.00 | 0.00 | 80 | 1013.4 |
| 20260906011433 | 19 | 340 | 1.6 | 6.4 | 0.00 | 0.00 | 0.00 | 80 | 1013.4 |
| 20260906010933 | 19 | 355 | 1.6 | 4.8 | 0.00 | 0.00 | 0.00 | 80 | 1013.5 |
| 20260906010433 | 19 | 355 | 1.6 | 4.8 | 0.00 | 0.00 | 0.00 | 79 | 1013.5 |
| 20260906010153 | 19 | 359 | 3.2 | 6.4 | 0.00 | 0.00 | 0.00 | 79 | 1013.5 |
| 20260906005429 | 19 | 355 | 3.2 | 6.4 | 0.00 | 0.00 | 0.00 | 79 | 1013.3 |
| 20260906004928 | 19 | 0 | 3.2 | 8.0 | 0.00 | 0.00 | 0.00 | 79 | 1013.4 |
| 20260906004428 | 19 | 0 | 3.2 | 9.7 | 0.00 | 0.00 | 0.00 | 79 | 1013.3 |
| 20260906003927 | 19 | 330 | 4.8 | 9.7 | 0.00 | 0.00 | 0.00 | 78 | 1013.2 |
| 20260906003657 | 20 | 15 | 3.2 | 9.7 | 0.00 | 0.00 | 0.00 | 78 | 1013.2 |
| 20260906002927 | 20 | 15 | 3.2 | 9.7 | 0.00 | 0.00 | 0.00 | 77 | 1013.2 |
| 20260906002427 | 20 | 34 | 3.2 | 8.0 | 0.00 | 0.00 | 0.00 | 77 | 1013.3 |
| 20260906001926 | 20 | 235 | 3.2 | 8.0 | 0.00 | 0.00 | 0.00 | 77 | 1013.3 |
| 20260906001426 | 20 | 357 | 3.2 | 8.0 | 0.00 | 0.00 | 0.00 | 77 | 1013.3 |
| 20260906001143 | 20 | 353 | 3.2 | 8.0 | 0.00 | 0.00 | 0.00 | 76 | 1013.3 |
| 20260906000426 | 20 | 332 | 3.2 | 8.0 | 0.00 | 0.00 | 0.00 | 76 | 1013.3 |
| 20260905235925 | 20 | 349 | 3.2 | 8.0 | 0.00 | 0.00 | 0.00 | 76 | 1013.3 |
| 20260905235425 | 20 | 344 | 3.2 | 8.0 | 0.00 | 0.00 | 0.00 | 76 | 1013.3 |
| 20260905234922 | 20 | 20 | 3.2 | 8.0 | 0.00 | 0.00 | 0.00 | 75 | 1013.2 |
| 20260905234422 | 20 | 358 | 3.2 | 8.0 | 0.00 | 0.00 | 0.00 | 75 | 1013.2 |
| 20260905233922 | 20 | 359 | 3.2 | 8.0 | 0.00 | 0.00 | 0.00 | 75 | 1013.3 |
| 20260905233421 | 20 | 342 | 4.8 | 9.7 | 0.00 | 0.00 | 0.00 | 75 | 1013.2 |
| 20260905232922 | 20 | 31 | 4.8 | 9.7 | 0.00 | 0.00 | 0.00 | 75 | 1013.2 |
| 20260905232902 | 20 | 34 | 3.2 | 9.7 | 0.00 | 0.00 | 0.00 | 74 | 1013.2 |
| 20260905232405 | 21 | 344 | 4.8 | 9.7 | 0.00 | 0.00 | 0.00 | 74 | 1013.2 |
| 20260905231423 | 21 | 15 | 4.8 | 12.9 | 0.00 | 0.00 | 0.00 | 73 | 1013.3 |
| 20260905230923 | 21 | 318 | 6.4 | 12.9 | 0.00 | 0.00 | 0.00 | 73 | 1013.2 |
| 20260905230423 | 21 | 2 | 4.8 | 11.3 | 0.00 | 0.00 | 0.00 | 73 | 1013.2 |
| 20260905225922 | 21 | 30 | 4.8 | 14.5 | 0.00 | 0.00 | 0.00 | 71 | 1013.2 |
| 20260905225422 | 21 | 30 | 4.8 | 14.5 | 0.00 | 0.00 | 0.00 | 71 | 1013.2 |
| 20260905224923 | 21 | 344 | 6.4 | 12.9 | 0.00 | 0.00 | 0.00 | 70 | 1013.3 |
| 20260905224423 | 22 | 63 | 4.8 | 17.7 | 0.00 | 0.00 | 0.00 | 69 | 1013.2 |
| 20260905223923 | 22 | 357 | 4.8 | 17.7 | 0.00 | 0.00 | 0.00 | 68 | 1013.2 |
| 20260905223423 | 22 | 57 | 6.4 | 14.5 | 0.00 | 0.00 | 0.00 | 68 | 1013.1 |
| 20260905222923 | 22 | 258 | 4.8 | 14.5 | 0.00 | 0.00 | 0.00 | 69 | 1013.1 |
| 20260905222424 | 22 | 108 | 6.4 | 14.5 | 0.00 | 0.00 | 0.00 | 69 | 1013.0 |
| 20260905221923 | 22 | 353 | 6.4 | 14.5 | 0.00 | 0.00 | 0.00 | 70 | 1013.0 |
| 20260905221655 | 22 | 359 | 8.0 | 16.1 | 0.00 | 0.00 | 0.00 | 70 | 1013.0 |
| 20260905220924 | 22 | 23 | 8.0 | 16.1 | 0.00 | 0.00 | 0.00 | 70 | 1013.0 |
| 20260905220419 | 22 | 320 | 8.0 | 16.1 | 0.00 | 0.00 | 0.00 | 69 | 1012.8 |
| 20260905220401 | 22 | 14 | 6.4 | 16.1 | 0.00 | 0.00 | 0.00 | 69 | 1012.9 |
| 20260905215420 | 22 | 25 | 6.4 | 16.1 | 0.00 | 0.00 | 0.00 | 70 | 1012.9 |